Regional Weather Roundup
Issued by NWS

Home | Current Version | Previous Version | Text Only | Print | Product List | Glossary Off
Versions: 1 2 3 4 5 6 7 8 9 10 11 12 13 14 15 16 17 18 19 20 21 22 23 24 25 26 27 28 29 30 31 32 33 34 35 36 37 38 39 40 41 42 43 44 45 46 47 48 49 50

000
ASUS43 KLSX 240959
RWRMO

WEATHER SUMMARY FOR MISSOURI
NATIONAL WEATHER SERVICE SPRINGFIELD MO
500 AM CDT FRI OCT 24 2014

NOTE: "FAIR" INDICATES FEW OR NO CLOUDS BELOW 12,000 FEET WITH NO
       SIGNIFICANT WEATHER AND/OR OBSTRUCTIONS TO VISIBILITY.
       CURRENT SKY AND/OR WEATHER CONDITIONS ARE NOT AVAILABLE FOR
       CHILLICOTHE AND FARMINGTON.

MOZ001>031-035>038-043-044-053-054-241100-
...NORTHERN AND WESTERN MISSOURI...

CITY           SKY/WX    TMP DP  RH WIND       PRES   REMARKS
KANSAS CTY INT FOG       57  57 100 S10       30.05S VSB 1/2
KANSAS C DTWN  CLOUDY    59  57  93 S7        30.05F FOG
LEE`S SUMMIT   CLOUDY    56  56 100 SW8       30.07F FOG
ST JOSEPH      FOG       52  52 100 S5        30.04S VSB 1/4
KIRKSVILLE     FOG       56  56 100 SW5       30.07S VSB 1/4

$$
MOZ066>068-077>081-088>096-101>105-241100-
...SOUTHWEST MISSOURI...

CITY           SKY/WX    TMP DP  RH WIND       PRES   REMARKS
SPRINGFIELD    CLEAR     50  48  93 CALM      30.11R FOG
JOPLIN         CLEAR     51  50  96 S3        30.12S

$$
MOZ032>034-039>042-045>050-055>058-069>072-241100-
...CENTRAL MISSOURI...

CITY           SKY/WX    TMP DP  RH WIND       PRES   REMARKS
COLUMBIA       MOCLDY    54  54 100 SW7       30.10R FOG
JEFFERSON CITY FOG       46  46 100 CALM      30.10S VSB 1/4
ROLLA          PTCLDY    48  46  93 SW7       30.09R
SEDALIA        CLOUDY    60  57  89 W9        30.10S
OSAGE BEACH    CLOUDY    59  55  88 W5        30.11S

$$
MOZ051-052-059>065-241100-
...EAST CENTRAL MISSOURI...

CITY           SKY/WX    TMP DP  RH WIND       PRES   REMARKS
ST LOUIS INTL  MOCLDY    54  48  80 W3        30.10R
SPIRIT OF STL  CLOUDY    50  48  93 CALM      30.09R
ST CHARLES     CLOUDY    52  50  93 W3        30.09R

$$
MOZ072>076-082>087-097>100-106>115-241100-
...SOUTH CENTRAL AND SOUTHEAST MISSOURI...

CITY           SKY/WX    TMP DP  RH WIND       PRES   REMARKS
CAPE GIRARDEAU MOCLDY    48  45  89 CALM      30.13R
FARMINGTON     CLEAR     46  45  93 CALM      30.12R
POPLAR BLUFF   PTCLDY    46  44  93 CALM      30.12S
WEST PLAINS    PTCLDY    45  43  93 CALM      30.13R

$$



USA.gov is the U.S. government's official web portal to all federal, state and local government web resources and services.